Back to catalog

TITAN 3C TRANSTAGE R/B

AliveMEO
NORAD 11147·ROCKET BODY·🇺🇸 United States

Launched Dec 14, 1978 from Cape Canaveral Space Force Station

Loading…

Next Passes (next 24 hours)

TLE

FreshSource: Space-Track

Epoch: Sep 14, 2026, 13:24 UTC

1 11147U 78113D   26257.55902416 -.00000166  00000-0  00000-0 0  9992
2 11147  10.5589 304.9020 0254043  71.0869  94.8790  0.93755770115200

Track TITAN 3C TRANSTAGE R/B in real time with AllMySat

Download on the App Store